Regional Weather Roundup
Issued by NWS

Home | Current Version | Previous Version | Graphics & Text | Print | Product List | Glossary On
Versions: 1 2 3 4 5 6 7 8 9 10 11 12 13 14 15 16 17 18 19 20 21 22 23 24 25 26 27 28 29 30 31 32 33 34 35 36 37 38 39 40 41 42 43 44 45 46 47 48 49 50
000
ASUS43 KDMX 042307
RWRIA

WEATHER ROUNDUP FOR IOWA
NATIONAL WEATHER SERVICE DES MOINES IA
600 PM CDT FRI SEP 04 2015

NOTE: "FAIR" INDICATES FEW OR NO CLOUDS BELOW 12,000 FEET WITH NO
SIGNIFICANT WEATHER AND/OR OBSTRUCTIONS TO VISIBILITY.

* - THESE STATIONS ARE NOT NWS STATIONS...THUS NOT UNDER NWS
QUALITY CONTROL.  THEY ALSO DO NOT REPORT WEATHER SUCH
AS PRECIPITATION OR FOG.

IAZ001>003-012>014-020>022-031>034-043>046-050000-
   NORTHWEST IOWA

CITY           SKY/WX    TMP DP  RH WIND       PRES   REMARKS
CARROLL *      SUNNY     82  73  74 S9        29.91S HX  88
CHEROKEE *     MOSUNNY   82  73  74 S9        29.89R HX  88
DENISON *      SUNNY     82  73  74 SE10G22   29.87F HX  88
LE MARS *      SUNNY     82  73  74 SE7G16    29.86S HX  88
ORANGE CITY *  SUNNY     81  72  74 SE6       29.88S HX  84
SHELDON *      SUNNY     81  73  78 SE7G14    29.88S HX  85
SIOUX CITY     MOSUNNY   86  73  65 SE14      29.83F HX  93
SPENCER        CLOUDY    81  73  76 SE10      29.91F HX  86
STORM LAKE *   SUNNY     82  73  74 S10G18    29.92R HX  88
$$

IAZ055>058-069>071-079>083-090>094-050000-
   SOUTHWEST IOWA

CITY           SKY/WX    TMP DP  RH WIND       PRES   REMARKS
ATLANTIC *     SUNNY     84  73  70 SE7       29.90S HX  91
AUDUBON *      SUNNY     82  73  74 SE3       29.93S HX  88
CLARINDA *     SUNNY     84  72  65 S8G15     29.92S HX  89
COUNCIL BLFS * SUNNY     86  72  62 SE13G20   29.87F HX  92
CRESTON *      SUNNY     82  72  69 S7        29.95S HX  87
LAMONI         SUNNY     88  71  57 SE8       29.94F HX  94
RED OAK *      SUNNY     84  72  65 SE9       29.89F HX  89
SHENANDOAH *   SUNNY     88  70  55 S9        29.89S HX  92
$$

IAZ047>049-059>061-072>074-084-050000-
   CENTRAL IOWA

CITY           SKY/WX    TMP DP  RH WIND       PRES   REMARKS
AMES           MOSUNNY   83  71  67 S8        29.93F HX  87
ANKENY *       SUNNY     88  72  58 S8        29.93S HX  94
CHARITON *     SUNNY     88  70  55 S8        29.95S HX  92
DES MOINES     MOSUNNY   89  70  53 S9        29.93S HX  94
GRINNELL*      SUNNY     86  70  58 S7        29.96F HX  90
KNOXVILLE *    SUNNY     86  72  62 S7        29.93F HX  92
MARSHALLTOWN   SUNNY     86  71  60 S9        29.94S HX  91
PELLA *        SUNNY     88  73  62 S6        29.95F HX  96
PERRY *          N/A     88  73  62 S6        29.92F HX  96
$$

IAZ004>006-015-016-023>025-035-036-050000-
   NORTH CENTRAL IOWA

CITY           SKY/WX    TMP DP  RH WIND       PRES   REMARKS
ALGONA *       PTSUNNY   81  75  83 CALM      29.94R HX  86
CLARION *      SUNNY     84  73  70 S9        29.93S HX  91
ESTHERVILLE    CLOUDY    78  75  90 SE3       29.93R HX  81
FORT DODGE *   PTSUNNY   82  70  65 S6        29.93R HX  86
MASON CITY     CLOUDY    83  74  74 S8        29.95S HX  89
FOREST CITY *  SUNNY     81  73  78 S5        29.94R HX  85
IOWA FALLS *     N/A     86  73  66 SE8       29.96S HX  93
$$

IAZ007>011-017>019-026>030-037>042-050>054-066-050000-
   NORTHEAST IOWA

CITY           SKY/WX    TMP DP  RH WIND       PRES   REMARKS
CEDAR RAPIDS   SUNNY     87  73  62 S6        29.95F HX  94
CHARLES CITY * SUNNY     82  75  78 S6        29.96S HX  89
CLINTON *      MOSUNNY   90  72  55 SE6       29.99S HX  96
DECORAH *      SUNNY     84  72  65 S7        29.96S HX  89
DUBUQUE        SUNNY     85  71  63 SW6       29.99S HX  90
MONTICELLO *   SUNNY     86  72  62 S6        29.96F HX  92
OELWEIN *      SUNNY     84  73  70 S6        29.97S HX  91
WATERLOO       MOSUNNY   86  70  58 S8        29.94S HX  90
$$

IAZ064-065-067-068-078-050000-
   EAST CENTRAL IOWA

CITY           SKY/WX    TMP DP  RH WIND       PRES   REMARKS
DAVENPORT      SUNNY     88  70  55 SW5       29.97S HX  93
IOWA CITY      SUNNY     89  69  51 S6        29.96S HX  93
MT. PLEASANT * MOSUNNY   91  66  43 S5        29.96S HX  94
MUSCATINE *    SUNNY     93  66  40 S9        29.95S HX  96
QUAD CITIES    SUNNY     90  68  48 S6        29.95S HX  94
$$

IAZ062-063-075>077-085>089-095>099-050000-
   SOUTHEAST IOWA

CITY           SKY/WX    TMP DP  RH WIND       PRES   REMARKS
BURLINGTON     SUNNY     90  69  50 S6        29.96S HX  94
FAIRFIELD *    SUNNY     90  68  48 SW6       29.96S HX  93
FORT MADISON * SUNNY     88  72  58 CALM      29.97S HX  94
KEOKUK *       SUNNY     90  70  51 SW8       29.95F HX  95
OSKALOOSA *      N/A     90  66  45 S6        29.96S HX  92
CENTERVILLE *  SUNNY     86  72  62 S6        29.98S HX  92
OTTUMWA        MOSUNNY   88  71  57 S8        29.93F HX  94
WASHINGTON *     N/A    N/A N/A N/A MISG        N/A
$$

ABBREVIATIONS USED IN REMARKS
   TC - TEMPERATURES IN CELSIUS
  WCI - WIND CHILL INDEX
   HX - HEAT INDEX
  VSB - VISIBILITY
$$




USA.gov is the U.S. government's official web portal to all federal, state and local government web resources and services.